Regional Weather Roundup
Issued by NWS

Home | Current Version | Previous Version | Graphics & Text | Print | Product List | Glossary On
Versions: 1 2 3 4 5 6 7 8 9 10 11 12 13 14 15 16 17 18 19 20 21 22 23 24 25 26 27 28 29 30 31 32 33 34 35 36 37 38 39 40 41 42 43 44 45 46 47 48 49 50
474
ASUS45 KSLC 282210
RWRUT

UTAH REGIONAL WEATHER ROUNDUP
NATIONAL WEATHER SERVICE SALT LAKE CITY UT
400 PM MDT SAT MAY 28 2016

UTZ001>011-023>025-282300-

NORTHERN UTAH

CITY           SKY/WX    TMP DP  RH WIND       PRES   REMARKS
BRIGHAM CITY     N/A     70  32  24 N5        30.04S
HILL AFB       SUNNY     69  38  33 N10       30.05S
LOGAN          SUNNY     68  38  33 NW10      30.04F
OGDEN          SUNNY     70  38  31 NW9       30.03S
PROVO AIRPORT  PTSUNNY   72  37  28 NE8       30.02F
SALT LAKE CITY MOSUNNY   74  40  29 N15       30.01S
VERNAL         SUNNY     73  36  25 SW9       30.03F
WENDOVER       SUNNY     72  36  26 SE9       30.01F
HEBER CITY     PTSUNNY   64  36  34 SW23G31   30.05R
WEST JORDAN    SUNNY     70  43  37 NW9G18    30.04S

$$

UTZ012>022-026-027-282300-

SOUTHERN/CENTRAL UTAH

CITY           SKY/WX    TMP DP  RH WIND       PRES   REMARKS
BLANDING       MOSUNNY   72  29  20 NW3       30.15F
BRYCE CANYON   PTSUNNY   63  26  24 SE7       30.15F
CEDAR CITY     PTSUNNY   77  25  14 SW13G20   30.00F
DELTA          SUNNY     75  30  19 W12       29.99S
HANKSVILLE     CLOUDY    72  36  26 S8        30.04S
MILFORD        PTSUNNY   75  28  17 MISG      29.99R
MOAB/CYNLANDS  SUNNY     79  25  13 VRB5      29.96F
PRICE          PTSUNNY   69  29  22 SW16G22   30.05R THUNDER
ST GEORGE      MOCLDY    88  32  13 NW7       29.87F
KANAB          MOSUNNY   81  27  13 CALM      30.01F

$$

REGIONAL REPORTS     COLORADO/ARIZONA

CITY           SKY/WX    TMP DP  RH WIND       PRES   REMARKS
CRAIG, CO      CLOUDY    66  37  34 NW16      30.08S
GRAND JUNCTION SUNNY     74  33  22 VRB3G17   30.00F
RIFLE          CLOUDY    75  31  19 CALM      30.03F
MONTROSE       MOSUNNY   73  27  18 N7        30.08F
CORTEZ         CLOUDY    74  27  17 VRB3      30.07F
PAGE, AZ       SUNNY     83  27  13 VRB7      29.94F
GRAND CANYON   CLOUDY    68  28  22 NW6       30.10S
KINGMAN        MOSUNNY   87  27  11 SW18G25   29.89F
FLAGSTAFF      PTSUNNY   66  27  23 VRB5      30.11F

$$

REGIONAL REPORTS    NEVADA/IDAHO/WYOMING

CITY           SKY/WX    TMP DP  RH WIND       PRES   REMARKS
LAS VEGAS, NV  PTSUNNY   90  27  10 SE7       29.77F
ELY            PTSUNNY   66  33  29 MISG      30.06F
ELKO           SUNNY     71  32  23 VRB6      30.02F
POCATELLO, ID  MOSUNNY   67  27  22 W15G25    30.07F
BURLEY         SUNNY     64  30  27 W8        30.05F
EVANSTON, WY   MOSUNNY   63  33  32 W21G28    30.12S
ROCK SPRINGS   CLOUDY    62  34  35 W17       30.08S
KEMMERER         N/A     59  32  36 W16G30    30.13R

$$




USA.gov is the U.S. government's official web portal to all federal, state and local government web resources and services.